Year,Month,Day,Hour,Minute,Value (Times are PST for temperature in C)
2012,09,02,00,00,11.60
2012,09,02,00,01,11.40
2012,09,02,00,02,11.40
2012,09,02,00,03,11.40
2012,09,02,00,04,11.40
2012,09,02,00,05,11.30
2012,09,02,00,06,11.30
2012,09,02,00,07,11.30
2012,09,02,00,08,11.30
2012,09,02,00,09,11.30
2012,09,02,00,10,11.30
2012,09,02,00,11,11.30
2012,09,02,00,12,11.30
2012,09,02,00,13,11.30
2012,09,02,00,14,11.40
2012,09,02,00,15,11.30
2012,09,02,00,16,11.30
2012,09,02,00,17,11.30
2012,09,02,00,18,11.30
2012,09,02,00,19,11.30
2012,09,02,00,20,11.20
2012,09,02,00,21,11.20
2012,09,02,00,22,11.20
2012,09,02,00,23,11.20
2012,09,02,00,24,11.20
2012,09,02,00,25,11.10
2012,09,02,00,26,11.10
2012,09,02,00,27,11.20
2012,09,02,00,28,11.20
2012,09,02,00,29,11.20
2012,09,02,00,30,11.30
2012,09,02,00,31,11.30
2012,09,02,00,32,11.40
2012,09,02,00,33,11.50
2012,09,02,00,34,11.50
2012,09,02,00,35,11.50
2012,09,02,00,36,11.50
2012,09,02,00,37,11.50
2012,09,02,00,38,11.40
2012,09,02,00,39,11.40
2012,09,02,00,40,11.40
2012,09,02,00,41,11.50
2012,09,02,00,42,11.50
2012,09,02,00,43,11.60
2012,09,02,00,44,11.70
2012,09,02,00,45,11.80
2012,09,02,00,46,11.80
2012,09,02,00,47,11.90
2012,09,02,00,48,11.90
2012,09,02,00,49,12.00
2012,09,02,00,50,12.10
2012,09,02,00,51,12.10
2012,09,02,00,52,12.10
2012,09,02,00,53,12.10
2012,09,02,00,54,12.10
2012,09,02,00,55,12.10
2012,09,02,00,56,12.20
2012,09,02,00,57,12.20
2012,09,02,00,58,12.20
2012,09,02,00,59,12.10
2012,09,02,01,00,12.10
2012,09,02,01,01,12.10
2012,09,02,01,02,12.00
2012,09,02,01,03,11.90
2012,09,02,01,04,11.80
2012,09,02,01,05,11.70
2012,09,02,01,06,11.70
2012,09,02,01,07,11.60
2012,09,02,01,08,11.60
2012,09,02,01,09,11.60
2012,09,02,01,10,11.60
2012,09,02,01,11,11.60
2012,09,02,01,12,11.60
2012,09,02,01,13,11.60
2012,09,02,01,14,11.60
2012,09,02,01,15,11.60
2012,09,02,01,16,11.50
2012,09,02,01,17,11.50
2012,09,02,01,18,11.50
2012,09,02,01,19,11.50
2012,09,02,01,20,11.40
2012,09,02,01,21,11.40
2012,09,02,01,22,11.30
2012,09,02,01,23,11.30
2012,09,02,01,24,11.30
2012,09,02,01,25,11.20
2012,09,02,01,26,11.20
2012,09,02,01,27,11.20
2012,09,02,01,28,11.10
2012,09,02,01,29,11.10
2012,09,02,01,30,11.10
2012,09,02,01,31,11.00
2012,09,02,01,32,11.00
2012,09,02,01,33,10.90
2012,09,02,01,34,10.90
2012,09,02,01,35,10.90
2012,09,02,01,36,10.90
2012,09,02,01,37,10.80
2012,09,02,01,38,10.70
2012,09,02,01,39,10.60
2012,09,02,01,40,10.50
2012,09,02,01,41,10.40
2012,09,02,01,42,10.40
2012,09,02,01,43,10.30
2012,09,02,01,44,10.30
2012,09,02,01,45,10.30
2012,09,02,01,46,10.20
2012,09,02,01,47,10.20
2012,09,02,01,48,10.20
2012,09,02,01,49,10.20
2012,09,02,01,50,10.20
2012,09,02,01,51,10.20
2012,09,02,01,52,10.20
2012,09,02,01,53,10.10
2012,09,02,01,54,10.00
2012,09,02,01,55,10.00
2012,09,02,01,56,9.90
2012,09,02,01,57,9.90
2012,09,02,01,58,9.80
2012,09,02,01,59,9.80
2012,09,02,02,00,9.70
2012,09,02,02,01,9.70
2012,09,02,02,02,9.60
2012,09,02,02,03,9.60
2012,09,02,02,04,9.60
2012,09,02,02,05,9.60
2012,09,02,02,06,9.70
2012,09,02,02,07,9.70
2012,09,02,02,08,9.70
2012,09,02,02,09,9.60
2012,09,02,02,10,9.60
2012,09,02,02,11,9.60
2012,09,02,02,12,9.60
2012,09,02,02,13,9.60
2012,09,02,02,14,9.60
2012,09,02,02,15,9.60
2012,09,02,02,16,9.70
2012,09,02,02,17,9.80
2012,09,02,02,18,9.80
2012,09,02,02,19,9.80
2012,09,02,02,20,9.70
2012,09,02,02,21,9.70
2012,09,02,02,22,9.70
2012,09,02,02,23,9.80
2012,09,02,02,24,9.80
2012,09,02,02,25,9.80
2012,09,02,02,26,9.80
2012,09,02,02,27,9.80
2012,09,02,02,28,9.80
2012,09,02,02,29,9.80
2012,09,02,02,30,9.80
2012,09,02,02,31,9.90
2012,09,02,02,32,9.90
2012,09,02,02,33,9.90
2012,09,02,02,34,9.90
2012,09,02,02,35,9.90
2012,09,02,02,36,9.90
2012,09,02,02,37,9.90
2012,09,02,02,38,9.90
2012,09,02,02,39,9.90
2012,09,02,02,40,9.90
2012,09,02,02,41,9.90
2012,09,02,02,42,9.90
2012,09,02,02,43,9.90
2012,09,02,02,44,9.90
2012,09,02,02,45,9.90
2012,09,02,02,46,9.90
2012,09,02,02,47,9.90
2012,09,02,02,48,9.90
2012,09,02,02,49,9.90
2012,09,02,02,50,9.90
2012,09,02,02,51,9.90
2012,09,02,02,52,9.90
2012,09,02,02,53,9.90
2012,09,02,02,54,9.90
2012,09,02,02,55,9.90
2012,09,02,02,56,9.90
2012,09,02,02,57,9.90
2012,09,02,02,58,9.90
2012,09,02,02,59,9.90
2012,09,02,03,00,9.90
2012,09,02,03,01,9.90
2012,09,02,03,02,9.90
2012,09,02,03,03,9.90
2012,09,02,03,04,9.90
2012,09,02,03,05,9.80
2012,09,02,03,06,9.80
2012,09,02,03,07,9.80
2012,09,02,03,08,9.80
2012,09,02,03,09,9.80
2012,09,02,03,10,9.80
2012,09,02,03,11,9.80
2012,09,02,03,12,9.90
2012,09,02,03,13,9.90
2012,09,02,03,14,9.90
2012,09,02,03,15,9.90
2012,09,02,03,16,9.90
2012,09,02,03,17,9.90
2012,09,02,03,18,10.00
2012,09,02,03,19,10.00
2012,09,02,03,20,10.10
2012,09,02,03,21,10.10
2012,09,02,03,22,10.10
2012,09,02,03,23,10.20
2012,09,02,03,24,10.20
2012,09,02,03,25,10.20
2012,09,02,03,26,10.30
2012,09,02,03,27,10.30
2012,09,02,03,28,10.30
2012,09,02,03,29,10.40
2012,09,02,03,30,10.50
2012,09,02,03,31,10.60
2012,09,02,03,32,10.70
2012,09,02,03,33,10.80
2012,09,02,03,34,11.00
2012,09,02,03,35,11.20
2012,09,02,03,36,11.30
2012,09,02,03,37,11.40
2012,09,02,03,38,11.50
2012,09,02,03,39,11.50
2012,09,02,03,40,11.60
2012,09,02,03,41,11.60
2012,09,02,03,42,11.50
2012,09,02,03,43,11.50
2012,09,02,03,44,11.50
2012,09,02,03,45,11.50
2012,09,02,03,46,11.50
2012,09,02,03,47,11.50
2012,09,02,03,48,11.60
2012,09,02,03,49,11.60
2012,09,02,03,50,11.50
2012,09,02,03,51,11.50
2012,09,02,03,52,11.40
2012,09,02,03,53,11.40
2012,09,02,03,54,11.40
2012,09,02,03,55,11.40
2012,09,02,03,56,11.40
2012,09,02,03,57,11.40
2012,09,02,03,58,11.50
2012,09,02,03,59,11.60
2012,09,02,04,00,11.60
2012,09,02,04,01,11.70
2012,09,02,04,02,11.70
2012,09,02,04,03,11.70
2012,09,02,04,04,11.70
2012,09,02,04,05,11.70
2012,09,02,04,06,11.70
2012,09,02,04,07,11.60
2012,09,02,04,08,11.60
2012,09,02,04,09,11.60
2012,09,02,04,10,11.60
2012,09,02,04,11,11.50
2012,09,02,04,12,11.50
2012,09,02,04,13,11.50
2012,09,02,04,14,11.50
2012,09,02,04,15,11.50
2012,09,02,04,16,11.60
2012,09,02,04,17,11.60
2012,09,02,04,18,11.70
2012,09,02,04,19,11.70
2012,09,02,04,20,11.70
2012,09,02,04,21,11.70
2012,09,02,04,22,11.80
2012,09,02,04,23,11.80
2012,09,02,04,24,11.80
2012,09,02,04,25,11.80
2012,09,02,04,26,11.80
2012,09,02,04,27,11.80
2012,09,02,04,28,11.80
2012,09,02,04,29,11.80
2012,09,02,04,30,11.80
2012,09,02,04,31,11.80
2012,09,02,04,32,11.80
2012,09,02,04,33,11.80
2012,09,02,04,34,11.80
2012,09,02,04,35,11.70
2012,09,02,04,36,11.70
2012,09,02,04,37,11.80
2012,09,02,04,38,11.80
2012,09,02,04,39,11.80
2012,09,02,04,40,11.90
2012,09,02,04,41,11.90
2012,09,02,04,42,11.90
2012,09,02,04,43,12.00
2012,09,02,04,44,12.00
2012,09,02,04,45,12.00
2012,09,02,04,46,12.10
2012,09,02,04,47,12.10
2012,09,02,04,48,12.10
2012,09,02,04,49,12.10
2012,09,02,04,50,12.10
2012,09,02,04,51,12.10
2012,09,02,04,52,12.10
2012,09,02,04,53,12.10
2012,09,02,04,54,12.10
2012,09,02,04,55,12.10
2012,09,02,04,56,12.20
2012,09,02,04,57,12.20
2012,09,02,04,58,12.20
2012,09,02,04,59,12.20
2012,09,02,05,00,12.20
2012,09,02,05,01,12.30
2012,09,02,05,02,12.30
2012,09,02,05,03,12.30
2012,09,02,05,04,12.30
2012,09,02,05,05,12.40
2012,09,02,05,06,12.40
2012,09,02,05,07,12.50
2012,09,02,05,08,12.50
2012,09,02,05,09,12.50
2012,09,02,05,10,12.50
2012,09,02,05,11,12.50
2012,09,02,05,12,12.60
2012,09,02,05,13,12.50
2012,09,02,05,14,12.50
2012,09,02,05,15,12.50
2012,09,02,05,16,12.50
2012,09,02,05,17,12.50
2012,09,02,05,18,12.50
2012,09,02,05,19,12.50
2012,09,02,05,20,12.50
2012,09,02,05,21,12.40
2012,09,02,05,22,12.40
2012,09,02,05,23,12.40
2012,09,02,05,24,12.40
2012,09,02,05,25,12.40
2012,09,02,05,26,12.40
2012,09,02,05,27,12.30
2012,09,02,05,28,12.30
2012,09,02,05,29,12.30
2012,09,02,05,30,12.30
2012,09,02,05,31,12.30
2012,09,02,05,32,12.30
2012,09,02,05,33,12.30
2012,09,02,05,34,12.30
2012,09,02,05,35,12.30
2012,09,02,05,36,12.30
2012,09,02,05,37,12.30
2012,09,02,05,38,12.30
2012,09,02,05,39,12.30
2012,09,02,05,40,12.30
2012,09,02,05,41,12.30
2012,09,02,05,42,12.30
2012,09,02,05,43,12.40
2012,09,02,05,44,12.40
2012,09,02,05,45,12.40
2012,09,02,05,46,12.40
2012,09,02,05,47,12.40
2012,09,02,05,48,12.40
2012,09,02,05,49,12.40
2012,09,02,05,50,12.40
2012,09,02,05,51,12.40
2012,09,02,05,52,12.40
2012,09,02,05,53,12.30
2012,09,02,05,54,12.30
2012,09,02,05,55,12.30
2012,09,02,05,56,12.30
2012,09,02,05,57,12.20
2012,09,02,05,58,12.20
2012,09,02,05,59,12.10
2012,09,02,06,00,12.10
2012,09,02,06,01,12.00
2012,09,02,06,02,12.00
2012,09,02,06,03,11.90
2012,09,02,06,04,11.90
2012,09,02,06,05,11.90
2012,09,02,06,06,11.80
2012,09,02,06,07,11.80
2012,09,02,06,08,11.80
2012,09,02,06,09,11.80
2012,09,02,06,10,11.80
2012,09,02,06,11,11.70
2012,09,02,06,12,11.70
2012,09,02,06,13,11.70
2012,09,02,06,14,11.70
2012,09,02,06,15,11.70
2012,09,02,06,16,11.70
2012,09,02,06,17,11.70
2012,09,02,06,18,11.70
2012,09,02,06,19,11.70
2012,09,02,06,20,11.60
2012,09,02,06,21,11.60
2012,09,02,06,22,11.60
2012,09,02,06,23,11.60
2012,09,02,06,24,11.60
2012,09,02,06,25,11.60
2012,09,02,06,26,11.60
2012,09,02,06,27,11.50
2012,09,02,06,28,11.50
2012,09,02,06,29,11.50
2012,09,02,06,30,11.50
2012,09,02,06,31,11.50
2012,09,02,06,32,11.50
2012,09,02,06,33,11.40
2012,09,02,06,34,11.40
2012,09,02,06,35,11.40
2012,09,02,06,36,11.40
2012,09,02,06,37,11.40
2012,09,02,06,38,11.40
2012,09,02,06,39,11.30
2012,09,02,06,40,11.30
2012,09,02,06,41,11.30
2012,09,02,06,42,11.30
2012,09,02,06,43,11.30
2012,09,02,06,44,11.30
2012,09,02,06,45,11.30
2012,09,02,06,46,11.30
2012,09,02,06,47,11.20
2012,09,02,06,48,11.20
2012,09,02,06,49,11.20
2012,09,02,06,50,11.20
2012,09,02,06,51,11.20
2012,09,02,06,52,11.20
2012,09,02,06,53,11.20
2012,09,02,06,54,11.20
2012,09,02,06,55,11.20
2012,09,02,06,56,11.20
2012,09,02,06,57,11.20
2012,09,02,06,58,11.20
2012,09,02,06,59,11.20
2012,09,02,07,00,11.20
2012,09,02,07,01,11.20
2012,09,02,07,02,11.20
2012,09,02,07,03,11.20
2012,09,02,07,04,11.20
2012,09,02,07,05,11.20
2012,09,02,07,06,11.20
2012,09,02,07,07,11.20
2012,09,02,07,08,11.20
2012,09,02,07,09,11.20
2012,09,02,07,10,11.20
2012,09,02,07,11,11.20
2012,09,02,07,12,11.20
2012,09,02,07,13,11.20
2012,09,02,07,14,11.20
2012,09,02,07,15,11.20
2012,09,02,07,16,11.20
2012,09,02,07,17,11.20
2012,09,02,07,18,11.20
2012,09,02,07,19,11.20
2012,09,02,07,20,11.20
2012,09,02,07,21,11.20
2012,09,02,07,22,11.20
2012,09,02,07,23,11.30
2012,09,02,07,24,11.30
2012,09,02,07,25,11.30
2012,09,02,07,26,11.30
2012,09,02,07,27,11.30
2012,09,02,07,28,11.30
2012,09,02,07,29,11.40
2012,09,02,07,30,11.40
2012,09,02,07,31,11.40
2012,09,02,07,32,11.50
2012,09,02,07,33,11.50
2012,09,02,07,34,11.60
2012,09,02,07,35,11.60
2012,09,02,07,36,11.70
2012,09,02,07,37,11.70
2012,09,02,07,38,11.80
2012,09,02,07,39,11.90
2012,09,02,07,40,11.90
2012,09,02,07,41,12.00
2012,09,02,07,42,12.10
2012,09,02,07,43,12.20
2012,09,02,07,44,12.30
2012,09,02,07,45,12.40
2012,09,02,07,46,12.50
2012,09,02,07,47,12.50
2012,09,02,07,48,12.60
2012,09,02,07,49,12.70
2012,09,02,07,50,12.80
2012,09,02,07,51,12.80
2012,09,02,07,52,12.90
2012,09,02,07,53,13.00
2012,09,02,07,54,13.10
2012,09,02,07,55,13.30
2012,09,02,07,56,13.40
2012,09,02,07,57,13.50
2012,09,02,07,58,13.60
2012,09,02,07,59,13.60
2012,09,02,08,00,13.70
2012,09,02,08,01,13.80
2012,09,02,08,02,13.80
2012,09,02,08,03,13.90
2012,09,02,08,04,14.00
2012,09,02,08,05,14.00
2012,09,02,08,06,14.00
2012,09,02,08,07,14.10
2012,09,02,08,08,14.10
2012,09,02,08,09,14.10
2012,09,02,08,10,14.10
2012,09,02,08,11,14.10
2012,09,02,08,12,14.20
2012,09,02,08,13,14.20
2012,09,02,08,14,14.20
2012,09,02,08,15,14.30
2012,09,02,08,16,14.30
2012,09,02,08,17,14.40
2012,09,02,08,18,14.50
2012,09,02,08,19,14.50
2012,09,02,08,20,14.60
2012,09,02,08,21,14.70
2012,09,02,08,22,14.70
2012,09,02,08,23,14.80
2012,09,02,08,24,14.80
2012,09,02,08,25,14.80
2012,09,02,08,26,14.90
2012,09,02,08,27,14.90
2012,09,02,08,28,14.90
2012,09,02,08,29,14.90
2012,09,02,08,30,15.00
2012,09,02,08,31,15.00
2012,09,02,08,32,15.00
2012,09,02,08,33,15.00
2012,09,02,08,34,15.00
2012,09,02,08,35,15.00
2012,09,02,08,36,15.00
2012,09,02,08,37,15.00
2012,09,02,08,38,15.00
2012,09,02,08,39,15.00
2012,09,02,08,40,15.00
2012,09,02,08,41,14.90
2012,09,02,08,42,14.90
2012,09,02,08,43,15.00
2012,09,02,08,44,15.00
2012,09,02,08,45,15.00
2012,09,02,08,46,15.00
2012,09,02,08,47,15.00
2012,09,02,08,48,15.00
2012,09,02,08,49,15.00
2012,09,02,08,50,15.00
2012,09,02,08,51,15.10
2012,09,02,08,52,15.10
2012,09,02,08,53,15.20
2012,09,02,08,54,15.30
2012,09,02,08,55,15.30
2012,09,02,08,56,15.40
2012,09,02,08,57,15.50
2012,09,02,08,58,15.60
2012,09,02,08,59,15.70
2012,09,02,09,00,15.80
2012,09,02,09,01,15.90
2012,09,02,09,02,16.00
2012,09,02,09,03,16.10
2012,09,02,09,04,16.20
2012,09,02,09,05,16.30
2012,09,02,09,06,16.30
2012,09,02,09,07,16.40
2012,09,02,09,08,16.50
2012,09,02,09,09,16.60
2012,09,02,09,10,16.70
2012,09,02,09,11,16.80
2012,09,02,09,12,16.80
2012,09,02,09,13,16.90
2012,09,02,09,14,16.90
2012,09,02,09,15,17.10
2012,09,02,09,16,17.10
2012,09,02,09,17,17.10
2012,09,02,09,18,17.10
2012,09,02,09,19,17.20
2012,09,02,09,20,17.20
2012,09,02,09,21,17.20
2012,09,02,09,22,17.20
2012,09,02,09,23,17.20
2012,09,02,09,24,17.20
2012,09,02,09,25,17.30
2012,09,02,09,26,17.30
2012,09,02,09,27,17.40
2012,09,02,09,28,17.40
2012,09,02,09,29,17.40
2012,09,02,09,30,17.40
2012,09,02,09,31,17.50
2012,09,02,09,32,17.50
2012,09,02,09,33,17.60
2012,09,02,09,34,17.70
2012,09,02,09,35,17.70
2012,09,02,09,36,17.70
2012,09,02,09,37,17.80
2012,09,02,09,38,17.80
2012,09,02,09,39,17.80
2012,09,02,09,40,17.70
2012,09,02,09,41,17.70
2012,09,02,09,42,17.60
2012,09,02,09,43,17.60
2012,09,02,09,44,17.50
2012,09,02,09,45,17.40
2012,09,02,09,46,17.40
2012,09,02,09,47,17.40
2012,09,02,09,48,17.40
2012,09,02,09,49,17.40
2012,09,02,09,50,17.40
2012,09,02,09,51,17.50
2012,09,02,09,52,17.50
2012,09,02,09,53,17.50
2012,09,02,09,54,17.40
2012,09,02,09,55,17.40
2012,09,02,09,56,17.30
2012,09,02,09,57,17.30
2012,09,02,09,58,17.30
2012,09,02,09,59,17.40
2012,09,02,10,00,17.40
2012,09,02,10,01,17.50
2012,09,02,10,02,17.50
2012,09,02,10,03,17.60
2012,09,02,10,04,17.60
2012,09,02,10,05,17.60
2012,09,02,10,06,17.70
2012,09,02,10,07,17.70
2012,09,02,10,08,17.80
2012,09,02,10,09,17.80
2012,09,02,10,10,17.80
2012,09,02,10,11,17.80
2012,09,02,10,12,17.80
2012,09,02,10,13,17.80
2012,09,02,10,14,17.80
2012,09,02,10,15,17.80
2012,09,02,10,16,17.80
2012,09,02,10,17,17.70
2012,09,02,10,18,17.70
2012,09,02,10,19,17.70
2012,09,02,10,20,17.80
2012,09,02,10,21,17.70
2012,09,02,10,22,17.70
2012,09,02,10,23,17.70
2012,09,02,10,24,17.70
2012,09,02,10,25,17.70
2012,09,02,10,26,17.60
2012,09,02,10,27,17.70
2012,09,02,10,28,17.70
2012,09,02,10,29,17.70
2012,09,02,10,30,17.70
2012,09,02,10,31,17.80
2012,09,02,10,32,17.80
2012,09,02,10,33,17.80
2012,09,02,10,34,17.80
2012,09,02,10,35,17.80
2012,09,02,10,36,17.70
2012,09,02,10,37,17.70
2012,09,02,10,38,17.70
2012,09,02,10,39,17.70
2012,09,02,10,40,17.80
2012,09,02,10,41,17.80
2012,09,02,10,42,17.90
2012,09,02,10,43,17.90
2012,09,02,10,44,17.90
2012,09,02,10,45,18.00
2012,09,02,10,46,18.10
2012,09,02,10,47,18.10
2012,09,02,10,48,18.00
2012,09,02,10,49,18.00
2012,09,02,10,50,18.10
2012,09,02,10,51,18.10
2012,09,02,10,52,18.10
2012,09,02,10,53,18.10
2012,09,02,10,54,18.20
2012,09,02,10,55,18.30
2012,09,02,10,56,18.40
2012,09,02,10,57,18.40
2012,09,02,10,58,18.40
2012,09,02,10,59,18.40
2012,09,02,11,00,18.40
2012,09,02,11,01,18.30
2012,09,02,11,02,18.30
2012,09,02,11,03,18.20
2012,09,02,11,04,18.10
2012,09,02,11,05,18.10
2012,09,02,11,06,18.10
2012,09,02,11,07,18.20
2012,09,02,11,08,18.30
2012,09,02,11,09,18.30
2012,09,02,11,10,18.40
2012,09,02,11,11,18.40
2012,09,02,11,12,18.50
2012,09,02,11,13,18.60
2012,09,02,11,14,18.60
2012,09,02,11,15,18.70
2012,09,02,11,16,18.70
2012,09,02,11,17,18.80
2012,09,02,11,18,18.80
2012,09,02,11,19,18.80
2012,09,02,11,20,18.80
2012,09,02,11,21,18.80
2012,09,02,11,22,18.80
2012,09,02,11,23,18.70
2012,09,02,11,24,18.70
2012,09,02,11,25,18.70
2012,09,02,11,26,18.70
2012,09,02,11,27,18.80
2012,09,02,11,28,18.90
2012,09,02,11,29,18.90
2012,09,02,11,30,18.90
2012,09,02,11,31,18.80
2012,09,02,11,32,18.80
2012,09,02,11,33,18.70
2012,09,02,11,34,18.60
2012,09,02,11,35,18.60
2012,09,02,11,36,18.60
2012,09,02,11,37,18.50
2012,09,02,11,38,18.50
2012,09,02,11,39,18.50
2012,09,02,11,40,18.50
2012,09,02,11,41,18.40
2012,09,02,11,42,18.50
2012,09,02,11,43,18.50
2012,09,02,11,44,18.40
2012,09,02,11,45,18.40
2012,09,02,11,46,18.40
2012,09,02,11,47,18.40
2012,09,02,11,48,18.40
2012,09,02,11,49,18.40
2012,09,02,11,50,18.40
2012,09,02,11,51,18.50
2012,09,02,11,52,18.60
2012,09,02,11,53,18.60
2012,09,02,11,54,18.70
2012,09,02,11,55,18.70
2012,09,02,11,56,18.70
2012,09,02,11,57,18.80
2012,09,02,11,58,18.90
2012,09,02,11,59,19.00
2012,09,02,12,00,19.10
2012,09,02,12,01,19.10
2012,09,02,12,02,19.00
2012,09,02,12,03,19.00
2012,09,02,12,04,19.00
2012,09,02,12,05,18.90
2012,09,02,12,06,18.80
2012,09,02,12,07,18.80
2012,09,02,12,08,18.80
2012,09,02,12,09,18.70
2012,09,02,12,10,18.70
2012,09,02,12,11,18.70
2012,09,02,12,12,18.80
2012,09,02,12,13,18.90
2012,09,02,12,14,18.90
2012,09,02,12,15,19.00
2012,09,02,12,16,19.00
2012,09,02,12,17,18.90
2012,09,02,12,18,18.90
2012,09,02,12,19,18.90
2012,09,02,12,20,19.00
2012,09,02,12,21,19.10
2012,09,02,12,22,19.00
2012,09,02,12,23,19.00
2012,09,02,12,24,19.00
2012,09,02,12,25,18.90
2012,09,02,12,26,18.90
2012,09,02,12,27,18.80
2012,09,02,12,28,18.70
2012,09,02,12,29,18.70
2012,09,02,12,30,18.60
2012,09,02,12,31,18.60
2012,09,02,12,32,18.60
2012,09,02,12,33,18.50
2012,09,02,12,34,18.50
2012,09,02,12,35,18.60
2012,09,02,12,36,18.60
2012,09,02,12,37,18.70
2012,09,02,12,38,18.80
2012,09,02,12,39,18.90
2012,09,02,12,40,18.90
2012,09,02,12,41,19.00
2012,09,02,12,42,19.00
2012,09,02,12,43,19.00
2012,09,02,12,44,18.90
2012,09,02,12,45,18.90
2012,09,02,12,46,18.90
2012,09,02,12,47,19.00
2012,09,02,12,48,19.00
2012,09,02,12,49,19.10
2012,09,02,12,50,19.10
2012,09,02,12,51,19.20
2012,09,02,12,52,19.20
2012,09,02,12,53,19.20
2012,09,02,12,54,19.20
2012,09,02,12,55,19.20
2012,09,02,12,56,19.20
2012,09,02,12,57,19.30
2012,09,02,12,58,19.30
2012,09,02,12,59,19.40
2012,09,02,13,00,19.50
2012,09,02,13,01,19.60
2012,09,02,13,02,19.60
2012,09,02,13,03,19.70
2012,09,02,13,04,19.70
2012,09,02,13,05,19.80
2012,09,02,13,06,19.90
2012,09,02,13,07,20.10
2012,09,02,13,08,20.20
2012,09,02,13,09,20.30
2012,09,02,13,10,20.30
2012,09,02,13,11,20.10
2012,09,02,13,12,19.90
2012,09,02,13,13,19.70
2012,09,02,13,14,19.60
2012,09,02,13,15,19.60
2012,09,02,13,16,19.60
2012,09,02,13,17,19.60
2012,09,02,13,18,19.70
2012,09,02,13,19,19.80
2012,09,02,13,20,20.00
2012,09,02,13,21,20.00
2012,09,02,13,22,20.20
2012,09,02,13,23,20.20
2012,09,02,13,24,20.20
2012,09,02,13,25,20.30
2012,09,02,13,26,20.30
2012,09,02,13,27,20.30
2012,09,02,13,28,20.20
2012,09,02,13,29,20.30
2012,09,02,13,30,20.30
2012,09,02,13,31,20.40
2012,09,02,13,32,20.50
2012,09,02,13,33,20.40
2012,09,02,13,34,20.30
2012,09,02,13,35,20.20
2012,09,02,13,36,20.00
2012,09,02,13,37,19.90
2012,09,02,13,38,19.90
2012,09,02,13,39,20.00
2012,09,02,13,40,20.00
2012,09,02,13,41,20.10
2012,09,02,13,42,20.20
2012,09,02,13,43,20.20
2012,09,02,13,44,20.10
2012,09,02,13,45,19.90
2012,09,02,13,46,19.80
2012,09,02,13,47,19.70
2012,09,02,13,48,19.80
2012,09,02,13,49,19.80
2012,09,02,13,50,19.90
2012,09,02,13,51,19.90
2012,09,02,13,52,19.90
2012,09,02,13,53,19.80
2012,09,02,13,54,19.80
2012,09,02,13,55,19.80
2012,09,02,13,56,19.80
2012,09,02,13,57,19.80
2012,09,02,13,58,19.80
2012,09,02,13,59,19.80
2012,09,02,14,00,19.70
2012,09,02,14,01,19.80
2012,09,02,14,02,19.90
2012,09,02,14,03,19.90
2012,09,02,14,04,19.80
2012,09,02,14,05,19.80
2012,09,02,14,06,19.70
2012,09,02,14,07,19.60
2012,09,02,14,08,19.60
2012,09,02,14,09,19.60
2012,09,02,14,10,19.60
2012,09,02,14,11,19.70
2012,09,02,14,12,19.80
2012,09,02,14,13,19.80
2012,09,02,14,14,19.80
2012,09,02,14,15,19.80
2012,09,02,14,16,19.80
2012,09,02,14,17,19.90
2012,09,02,14,18,20.00
2012,09,02,14,19,20.20
2012,09,02,14,20,20.20
2012,09,02,14,21,20.30
2012,09,02,14,22,20.40
2012,09,02,14,23,20.50
2012,09,02,14,24,20.50
2012,09,02,14,25,20.60
2012,09,02,14,26,20.70
2012,09,02,14,27,20.80
2012,09,02,14,28,20.80
2012,09,02,14,29,20.90
2012,09,02,14,30,20.90
2012,09,02,14,31,20.90
2012,09,02,14,32,20.90
2012,09,02,14,33,20.90
2012,09,02,14,34,21.00
2012,09,02,14,35,21.00
2012,09,02,14,36,20.90
2012,09,02,14,37,20.80
2012,09,02,14,38,20.70
2012,09,02,14,39,20.60
2012,09,02,14,40,20.60
2012,09,02,14,41,20.60
2012,09,02,14,42,20.70
2012,09,02,14,43,20.60
2012,09,02,14,44,20.50
2012,09,02,14,45,20.50
2012,09,02,14,46,20.40
2012,09,02,14,47,20.40
2012,09,02,14,48,20.50
2012,09,02,14,49,20.50
2012,09,02,14,50,20.50
2012,09,02,14,51,20.40
2012,09,02,14,52,20.50
2012,09,02,14,53,20.60
2012,09,02,14,54,20.70
2012,09,02,14,55,20.60
2012,09,02,14,56,20.50
2012,09,02,14,57,20.40
2012,09,02,14,58,20.50
2012,09,02,14,59,20.60
2012,09,02,15,00,20.60
2012,09,02,15,01,20.60
2012,09,02,15,02,20.60
2012,09,02,15,03,20.60
2012,09,02,15,04,20.60
2012,09,02,15,05,20.70
2012,09,02,15,06,20.70
2012,09,02,15,07,20.70
2012,09,02,15,08,20.80
2012,09,02,15,09,20.80
2012,09,02,15,10,20.80
2012,09,02,15,11,20.80
2012,09,02,15,12,20.80
2012,09,02,15,13,20.80
2012,09,02,15,14,20.80
2012,09,02,15,15,20.70
2012,09,02,15,16,20.70
2012,09,02,15,17,20.70
2012,09,02,15,18,20.70
2012,09,02,15,19,20.70
2012,09,02,15,20,20.70
2012,09,02,15,21,20.60
2012,09,02,15,22,20.60
2012,09,02,15,23,20.60
2012,09,02,15,24,20.60
2012,09,02,15,25,20.70
2012,09,02,15,26,20.80
2012,09,02,15,27,20.90
2012,09,02,15,28,21.00
2012,09,02,15,29,21.20
2012,09,02,15,30,21.30
2012,09,02,15,31,21.30
2012,09,02,15,32,21.30
2012,09,02,15,33,21.30
2012,09,02,15,34,21.30
2012,09,02,15,35,21.30
2012,09,02,15,36,21.20
2012,09,02,15,37,21.20
2012,09,02,15,38,21.30
2012,09,02,15,39,21.40
2012,09,02,15,40,21.40
2012,09,02,15,41,21.40
2012,09,02,15,42,21.40
2012,09,02,15,43,21.40
2012,09,02,15,44,21.40
2012,09,02,15,45,21.50
2012,09,02,15,46,21.40
2012,09,02,15,47,21.50
2012,09,02,15,48,21.60
2012,09,02,15,49,21.60
2012,09,02,15,50,21.50
2012,09,02,15,51,21.50
2012,09,02,15,52,21.50
2012,09,02,15,53,21.40
2012,09,02,15,54,21.40
2012,09,02,15,55,21.30
2012,09,02,15,56,21.30
2012,09,02,15,57,21.30
2012,09,02,15,58,21.30
2012,09,02,15,59,21.30
2012,09,02,16,00,21.40
2012,09,02,16,01,21.40
2012,09,02,16,02,21.30
2012,09,02,16,03,21.40
2012,09,02,16,04,21.40
2012,09,02,16,05,21.40
2012,09,02,16,06,21.30
2012,09,02,16,07,21.30
2012,09,02,16,08,21.30
2012,09,02,16,09,21.30
2012,09,02,16,10,21.30
2012,09,02,16,11,21.30
2012,09,02,16,12,21.40
2012,09,02,16,13,21.40
2012,09,02,16,14,21.50
2012,09,02,16,15,21.40
2012,09,02,16,16,21.30
2012,09,02,16,17,21.20
2012,09,02,16,18,21.10
2012,09,02,16,19,21.10
2012,09,02,16,20,21.10
2012,09,02,16,21,21.10
2012,09,02,16,22,21.10
2012,09,02,16,23,21.10
2012,09,02,16,24,21.10
2012,09,02,16,25,21.10
2012,09,02,16,26,21.10
2012,09,02,16,27,21.10
2012,09,02,16,28,21.10
2012,09,02,16,29,21.10
2012,09,02,16,30,21.10
2012,09,02,16,31,21.20
2012,09,02,16,32,21.30
2012,09,02,16,33,21.30
2012,09,02,16,34,21.30
2012,09,02,16,35,21.30
2012,09,02,16,36,21.30
2012,09,02,16,37,21.30
2012,09,02,16,38,21.30
2012,09,02,16,39,21.30
2012,09,02,16,40,21.30
2012,09,02,16,41,21.20
2012,09,02,16,42,21.30
2012,09,02,16,43,21.20
2012,09,02,16,44,21.20
2012,09,02,16,45,21.20
2012,09,02,16,46,21.20
2012,09,02,16,47,21.20
2012,09,02,16,48,21.20
2012,09,02,16,49,21.20
2012,09,02,16,50,21.20
2012,09,02,16,51,21.20
2012,09,02,16,52,21.20
2012,09,02,16,53,21.20
2012,09,02,16,54,21.20
2012,09,02,16,55,21.20
2012,09,02,16,56,21.30
2012,09,02,16,57,21.30
2012,09,02,16,58,21.20
2012,09,02,16,59,21.20
2012,09,02,17,00,21.10
2012,09,02,17,01,21.10
2012,09,02,17,02,21.10
2012,09,02,17,03,21.10
2012,09,02,17,04,21.20
2012,09,02,17,05,21.20
2012,09,02,17,06,21.20
2012,09,02,17,07,21.30
2012,09,02,17,08,21.30
2012,09,02,17,09,21.30
2012,09,02,17,10,21.20
2012,09,02,17,11,21.20
2012,09,02,17,12,21.10
2012,09,02,17,13,21.10
2012,09,02,17,14,20.90
2012,09,02,17,15,20.80
2012,09,02,17,16,20.80
2012,09,02,17,17,20.80
2012,09,02,17,18,20.80
2012,09,02,17,19,20.80
2012,09,02,17,20,20.90
2012,09,02,17,21,21.00
2012,09,02,17,22,21.00
2012,09,02,17,23,21.00